Tracking 31027 objects as of 19-Jul-2025
HD Live streaming from Space Station
objects crossing your sky now

FENGYUN 1C DEB

Track FENGYUN 1C DEB now!
10-day predictions


NORAD ID: 35147
Int'l Code: 1999-025DMB
Perigee: 651.2 km
Apogee: 691.6 km
Inclination: 99.5 °
Period: 98.0 minutes
Semi major axis: 7042 km
RCS: 0.0009 m2 (small)
Launch date: May 10, 1999
Source: People's Republic of China (PRC)
Launch site: Taiyaun Space Center, China (TSC)

Note: This is SATELLITE DEBRIS
Your satellite tracking list
Your tracking list is empty




NASA's NSSDC Master Catalog

Two Line Element Set (TLE):
1 35147U 99025DMB 25199.58466211  .00008948  00000-0  15263-2 0  9992
2 35147  99.4978 248.7621 0028710 289.8976  69.9132 14.68997486721412
Source of the keplerian elements: AFSPC